Simultaneous Nadir Overpasses (SNOs) Predictions

Prediction of SNOs between GOES-16 and NOAA-20 Satellite Orbit:

Table of predicted SNOs for the next 14.0 days since TLE Epoch: 4/21/2023
Index Date Time (GOES-16) GOES-16 Lat,Lon NOAA-20 Lat,Lon Distance(km) Time Diff (sec)
1 04/22/2023 06:18:02 -0.04, -75.20 -0.45, -73.51 193.60 80
2 04/23/2023 18:42:38 0.03, -75.20 -0.78, -78.80 411.14 80
3 04/24/2023 18:21:13 0.04, -75.20 0.22, -74.27 105.46 80
4 04/26/2023 06:45:42 -0.03, -75.21 0.97, -79.54 493.64 80
5 04/27/2023 06:24:18 -0.03, -75.21 -0.09, -75.01 23.40 80
6 04/29/2023 18:30:10 0.02, -75.23 -0.12, -75.78 62.73 80
7 04/30/2023 18:08:46 0.02, -75.24 0.89, -71.24 454.95 80
8 05/02/2023 06:33:14 -0.01, -75.27 0.29, -76.51 142.50 80
9 05/03/2023 06:11:50 -0.02, -75.28 -0.78, -71.99 375.50 80
10 05/04/2023 18:36:27 0.01, -75.30 -0.41, -77.29 226.76 80
11 05/05/2023 18:15:02 0.02, -75.31 0.60, -72.76 291.41 80
